Find Starlink 6377

NORAD ID: 57341 Int'l Des: 2023-099 Owner: SPXS Country: US Constellation: starlink operational
LEOCIRCULAR

当前视图

正在加载3D地球...

About Starlink 6377

Starlink 6377 (NORAD 57341) is a starlink constellation satellite (v1.5) launched Jul 16, 2023 by SPXS of US. It operates in LEO, CIRCULAR orbit with a mass of 305.00 kg.

关于 Starlink 6377

正在加载描述...

即将过境

Passes for default location (London). Set your location on the main map for personalized predictions.

高度历史

Loading altitude history...

两行轨道根数

1 57341U 23099P 26171.32405431 .00000942 00000-0 43737-4 0 9995
2 57341 43.0035 36.1347 0000899 246.0269 114.0489 15.27589014161733
Epoch: Jun 20, 2026 • Age: 44 hours

当前状态

高度 485.7 km
速度 7.62 km/s
星下点 -14.41°S, 45.21°E
发射日期 Jul 16, 2023
运行时间 2.9 years
类型 internet

技术详情

分类 Payload
质量 305.00 kg
干质量 290.00 kg
总质量 305.00 kg
长度 0.20 m
直径 2.80 m
跨度 9.00 m
形状 Box + pan
制造商 SPXS
平台类型 Starlink
阶段状态 In Orbit
所有者/国家 SPXS/US

Most Searched